GSAT0217 (GALILEO 21)

Last updated on Sat Apr 11 2026 00:02:39 GMT+0000 (Coordinated Universal Time)

1 43057U 17079C 26099.89748234 .00000004 00000+0 00000+0 0 9996 2 43057 55.0942 223.3824 0001948 322.1866 37.7782 1.70474790 51829
UTC large
Height (km)
Speed (km/s)
/
Latitude / Longitude
Inclination (degrees)
Orbital Period (minutes)
Azimuth
Elevation
Range (km)
Doppler Factor

Next 0 passes for location: London (51.5072 / 0.1276)

Sorry there are no passes over London.
GSAT0217 (GALILEO 21)